Regional Weather Roundup
Issued by NWS Glasgow, MT

Home | Current Version | Previous Version | Text Only | Print | Product List | Glossary On
Versions: 1 2 3 4 5 6 7 8 9 10 11 12 13 14 15 16 17 18 19 20 21 22 23 24 25 26 27 28 29 30 31 32 33 34 35 36 37 38 39 40 41 42 43 44 45 46 47 48 49 50
000
ASUS45 KGGW 251615
RWRGGW
HOURLY REGIONAL WEATHER ROUNDUP FOR NORTHEAST MONTANA
NATIONAL WEATHER SERVICE GLASGOW MONTANA
1000 AM MDT THU MAY 25 2017

NOTE: "FAIR" INDICATES FEW OR NO CLOUDS BELOW 12,000 FEET WITH NO
SIGNIFICANT WEATHER AND/OR OBSTRUCTIONS TO VISISBILITY.

NORTHEAST MONTANA


CITY           SKY/WX    TMP DP  RH WIND       PRES   REMARKS
GLASGOW        CLOUDY    56  43  61 W26       29.36R
PLENTYWOOD       N/A     55  44  66 W15G28      N/A
WOLF POINT     CLOUDY    55  46  71 W16G23    29.35R
JORDAN           N/A     52  42  69 W22G31    29.45R
WINNETT          N/A     53  41  63 W25G46      N/A
SIDNEY         CLOUDY    54  42  64 SW21G29   29.39
GLENDIVE       CLOUDY    53  42  66 W21G28    29.44R
MALTA            N/A     53  42  66 W17G31      N/A
SCOBEY           N/A     56  35  45 W21G30    29.32
OPHEIM           N/A     46  43  87 W17       29.15R

FORT PECK REPORTS


CITY           SKY/WX    TMP DP  RH WIND       PRES   REMARKS
FORT PECK        N/A     57  44  62 W25G39      N/A
THE PINES        N/A     57  41  55 SE5G14      N/A

SOUTHEAST MONTANA


CITY           SKY/WX    TMP DP  RH WIND       PRES   REMARKS
BILLINGS       CLOUDY    48  36  63 W21G32    29.63R
MILES CITY     MOSUNNY   59  37  44 W29G38    29.49R
BAKER          SUNNY     57  35  43 W30G37    29.47F
LIVINGSTON     CLOUDY    42  36  79 W22G31    29.74R

CENTRAL MONTANA


CITY           SKY/WX    TMP DP  RH WIND       PRES   REMARKS
HAVRE          CLOUDY    50  42  74 NW23G35   29.54R
LEWISTOWN      LGT RAIN  43  40  89 NW18G31   29.61R
GREAT FALLS    CLOUDY    50  37  61 NW23G35   29.70R
CUT BANK       MOSUNNY   51  36  56 N36G48    29.69R
HELENA         CLOUDY    49  35  58 W12       29.77S
BUTTE          CLOUDY    43  29  57 N9        29.81R
BOZEMAN        CLOUDY    41  36  82 SW8       29.81R

WESTERN MONTANA


CITY           SKY/WX    TMP DP  RH WIND       PRES   REMARKS
MISSOULA       MOSUNNY   54  33  45 SW3       29.81S
KALISPELL      NOT AVBL

NORTH DAKOTA


CITY           SKY/WX    TMP DP  RH WIND       PRES   REMARKS
WILLISTON      CLOUDY    57  42  57 SW15G26   29.36S
DICKINSON      CLOUDY    59  32  36 W23G35    29.41F
MINOT          SUNNY     65  41  41 SW14      29.36S
BISMARCK       PTSUNNY   62  49  62 CALM      29.43S

SOUTHERN SASKATCHEWAN


CITY           SKY/WX    TMP DP  RH WIND       PRES   REMARKS
REGINA         LGT RAIN  48  46  93 SW6       29.20S
MOOSE JAW      LGT RAIN  48  43  81 NW16      29.23R
ESTEVAN        PTSUNNY   55  45  67 SW23G30   29.30S
SWIFT CURRENT  LGT RAIN  45  43  93 N21G26    29.28R FOG




USA.gov is the U.S. government's official web portal to all federal, state and local government web resources and services.